When you browse on this site, cookies collect data to enhance your experience and personalize the content and advertising you see.
Visit our Privacy Policy to learn more. By continuing to use the site, you agree to this use of cookies and data.
  • In Schweiz
  • Länderverzeichnis
  • Für 7 Tage
  • Wassertemperatur
  • Satellitenkarten
  • Wetterkarte
  • Widgets
  • user-avatar
    Anmelden

    Stündliche Wetter Mesznary

    Heute, 26 April, Freitag

    Zeit Temperatur Niederschläge Wind Luftdruck Luftfeuchtigkeit
    00:00 +16°C° 0 mm 3 m/S 745 mmHg 82%
    01:00 +16°C° 0 mm 3 m/S 745 mmHg 81%
    02:00 +14°C° 0 mm 3 m/S 745 mmHg 81%
    03:00 +14°C° 0 mm 3 m/S 744 mmHg 81%
    04:00 +14°C° 0 mm 3 m/S 744 mmHg 82%
    05:00 +16°C° 0 mm 3 m/S 744 mmHg 78%
    06:00 +17°C° 0 mm 4 m/S 744 mmHg 74%
    07:00 +18°C° 0 mm 4 m/S 744 mmHg 70%
    08:00 +20°C° 0 mm 4 m/S 743 mmHg 63%
    09:00 +22°C° 0 mm 4 m/S 743 mmHg 57%
    10:00 +23°C° 0 mm 4 m/S 743 mmHg 51%
    11:00 +25°C° 0 mm 4 m/S 743 mmHg 48%
    12:00 +26°C° 0 mm 4 m/S 743 mmHg 45%
    13:00 +27°C° 0 mm 4 m/S 743 mmHg 43%
    14:00 +27°C° 0 mm 4 m/S 742 mmHg 43%
    15:00 +27°C° 0 mm 3 m/S 742 mmHg 44%
    16:00 +27°C° 0 mm 3 m/S 742 mmHg 45%
    17:00 +25°C° 0 mm 3 m/S 741 mmHg 50%
    18:00 +24°C° 0 mm 2 m/S 741 mmHg 56%
    19:00 +21°C° 0 mm 2 m/S 741 mmHg 62%
    20:00 +20°C° 0 mm 2 m/S 741 mmHg 64%
    21:00 +19°C° 0 mm 2 m/S 741 mmHg 67%
    22:00 +18°C° 0 mm 3 m/S 741 mmHg 69%
    23:00 +18°C° 0 mm 3 m/S 742 mmHg 77%

    Morgen, 27 April, Samstag

    Zeit Temperatur Niederschläge Wind Luftdruck Luftfeuchtigkeit
    00:00 +17°C° 0 mm 4 m/S 742 mmHg 84%
    01:00 +15°C° 0 mm 4 m/S 742 mmHg 91%
    02:00 +15°C° 0.2 mm 4 m/S 742 mmHg 91%
    03:00 +15°C° 0.2 mm 5 m/S 742 mmHg 91%
    04:00 +14°C° 0.2 mm 5 m/S 742 mmHg 92%
    05:00 +14°C° 0.1 mm 5 m/S 743 mmHg 91%
    06:00 +14°C° 0.1 mm 5 m/S 743 mmHg 91%
    07:00 +13°C° 0.1 mm 6 m/S 744 mmHg 90%
    08:00 +13°C° 0.1 mm 6 m/S 744 mmHg 88%
    09:00 +11°C° 0.1 mm 6 m/S 744 mmHg 86%
    10:00 +10°C° 0.1 mm 6 m/S 745 mmHg 84%
    11:00 +11°C° 0 mm 6 m/S 745 mmHg 80%
    12:00 +13°C° 0 mm 6 m/S 745 mmHg 75%
    13:00 +14°C° 0 mm 5 m/S 746 mmHg 70%
    14:00 +14°C° 0 mm 5 m/S 746 mmHg 68%
    15:00 +14°C° 0 mm 4 m/S 746 mmHg 66%
    16:00 +15°C° 0 mm 4 m/S 746 mmHg 63%
    17:00 +14°C° 0 mm 3 m/S 746 mmHg 66%
    18:00 +13°C° 0 mm 3 m/S 746 mmHg 69%
    19:00 +13°C° 0 mm 2 m/S 746 mmHg 72%
    20:00 +12°C° 0 mm 2 m/S 746 mmHg 72%
    21:00 +12°C° 0 mm 1 m/S 746 mmHg 73%
    22:00 +11°C° 0 mm 1 m/S 746 mmHg 74%
    23:00 +11°C° 0 mm 1 m/S 746 mmHg 74%

    übermorgen, 28 April, Sonntag

    Zeit Temperatur Niederschläge Wind Luftdruck Luftfeuchtigkeit
    00:00 +11°C° 0 mm 1 m/S 746 mmHg 75%
    01:00 +10°C° 0 mm 1 m/S 747 mmHg 75%
    02:00 +9°C° 0 mm 2 m/S 747 mmHg 80%
    03:00 +9°C° 0 mm 3 m/S 747 mmHg 84%
    04:00 +8°C° 0 mm 4 m/S 747 mmHg 89%
    05:00 +8°C° 0.1 mm 5 m/S 747 mmHg 87%
    06:00 +8°C° 0.1 mm 5 m/S 748 mmHg 86%
    07:00 +9°C° 0.1 mm 6 m/S 748 mmHg 84%
    08:00 +10°C° 0 mm 6 m/S 748 mmHg 78%
    09:00 +11°C° 0 mm 6 m/S 748 mmHg 72%
    10:00 +13°C° 0 mm 6 m/S 748 mmHg 67%
    11:00 +13°C° 0 mm 6 m/S 749 mmHg 65%
    12:00 +14°C° 0 mm 5 m/S 749 mmHg 62%
    13:00 +14°C° 0 mm 5 m/S 749 mmHg 60%
    14:00 +14°C° 0 mm 5 m/S 749 mmHg 61%
    15:00 +14°C° 0 mm 5 m/S 749 mmHg 61%
    16:00 +13°C° 0 mm 5 m/S 749 mmHg 61%
    17:00 +13°C° 0 mm 4 m/S 749 mmHg 63%
    18:00 +12°C° 0 mm 4 m/S 749 mmHg 65%
    19:00 +11°C° 0 mm 3 m/S 749 mmHg 67%
    20:00 +11°C° 0 mm 3 m/S 749 mmHg 66%
    21:00 +11°C° 0 mm 4 m/S 749 mmHg 65%
    22:00 +11°C° 0 mm 4 m/S 749 mmHg 64%
    23:00 +10°C° 0 mm 4 m/S 749 mmHg 67%

    29 April, Montag

    Zeit Temperatur Niederschläge Wind Luftdruck Luftfeuchtigkeit
    00:00 +10°C° 0 mm 4 m/S 749 mmHg 69%
    01:00 +10°C° 0 mm 4 m/S 749 mmHg 72%
    02:00 +8°C° 0.1 mm 4 m/S 749 mmHg 75%
    03:00 +8°C° 0.1 mm 4 m/S 749 mmHg 78%
    04:00 +9°C° 0.1 mm 3 m/S 749 mmHg 81%
    05:00 +8°C° 0.1 mm 4 m/S 749 mmHg 79%
    06:00 +8°C° 0.1 mm 5 m/S 748 mmHg 78%
    07:00 +8°C° 0.1 mm 5 m/S 748 mmHg 77%
    08:00 +8°C° 0.2 mm 5 m/S 748 mmHg 80%
    09:00 +8°C° 0.2 mm 6 m/S 748 mmHg 82%
    10:00 +8°C° 0.2 mm 6 m/S 748 mmHg 85%
    11:00 +8°C° 1.9 mm 6 m/S 748 mmHg 87%
    12:00 +8°C° 1.9 mm 6 m/S 747 mmHg 90%
    13:00 +8°C° 1.9 mm 6 m/S 747 mmHg 93%
    14:00 +8°C° 1.8 mm 6 m/S 747 mmHg 93%
    15:00 +8°C° 1.8 mm 6 m/S 747 mmHg 93%
    16:00 +8°C° 1.8 mm 5 m/S 746 mmHg 94%
    17:00 +8°C° 0.4 mm 4 m/S 746 mmHg 95%
    18:00 +10°C° 0.4 mm 4 m/S 746 mmHg 96%
    19:00 +10°C° 0.4 mm 3 m/S 746 mmHg 97%
    20:00 +10°C° 0.1 mm 3 m/S 746 mmHg 97%
    21:00 +10°C° 0.1 mm 2 m/S 746 mmHg 97%
    22:00 +10°C° 0.1 mm 2 m/S 746 mmHg 97%
    23:00 +10°C° 0 mm 2 m/S 746 mmHg 96%

    30 April, Dienstag

    Zeit Temperatur Niederschläge Wind Luftdruck Luftfeuchtigkeit
    00:00 +9°C° 0 mm 2 m/S 746 mmHg 96%
    01:00 +9°C° 0 mm 3 m/S 746 mmHg 96%
    02:00 +8°C° 0 mm 3 m/S 746 mmHg 96%
    03:00 +8°C° 0 mm 3 m/S 746 mmHg 96%
    04:00 +8°C° 0 mm 3 m/S 746 mmHg 96%
    05:00 +9°C° 0.1 mm 3 m/S 747 mmHg 93%
    06:00 +10°C° 0.1 mm 3 m/S 747 mmHg 90%
    07:00 +11°C° 0.1 mm 4 m/S 747 mmHg 87%
    08:00 +12°C° 0.1 mm 4 m/S 747 mmHg 79%
    09:00 +13°C° 0.1 mm 4 m/S 747 mmHg 72%
    10:00 +15°C° 0.1 mm 4 m/S 747 mmHg 64%
    11:00 +15°C° 0.1 mm 4 m/S 747 mmHg 61%
    12:00 +15°C° 0.1 mm 4 m/S 747 mmHg 58%
    13:00 +16°C° 0.1 mm 5 m/S 746 mmHg 56%
    14:00 +15°C° 0 mm 4 m/S 746 mmHg 56%
    15:00 +15°C° 0 mm 4 m/S 746 mmHg 56%
    16:00 +15°C° 0 mm 4 m/S 746 mmHg 56%
    17:00 +14°C° 0 mm 3 m/S 746 mmHg 60%
    18:00 +13°C° 0 mm 3 m/S 746 mmHg 64%
    19:00 +12°C° 0 mm 2 m/S 746 mmHg 68%
    20:00 +12°C° 0 mm 2 m/S 746 mmHg 67%
    21:00 +12°C° 0 mm 2 m/S 747 mmHg 66%
    22:00 +12°C° 0 mm 2 m/S 747 mmHg 65%
    23:00 +10°C° 0 mm 3 m/S 747 mmHg 67%

    1 Mai, Mittwoch

    Zeit Temperatur Niederschläge Wind Luftdruck Luftfeuchtigkeit
    00:00 +10°C° 0 mm 3 m/S 747 mmHg 69%
    01:00 +9°C° 0 mm 3 m/S 747 mmHg 71%
    02:00 +9°C° 0 mm 3 m/S 747 mmHg 71%
    03:00 +9°C° 0 mm 3 m/S 746 mmHg 71%
    04:00 +8°C° 0 mm 2 m/S 746 mmHg 71%
    05:00 +9°C° 0 mm 2 m/S 747 mmHg 71%
    06:00 +9°C° 0 mm 2 m/S 747 mmHg 70%
    07:00 +10°C° 0 mm 2 m/S 747 mmHg 70%
    08:00 +12°C° 0.1 mm 2 m/S 746 mmHg 63%
    09:00 +13°C° 0.1 mm 2 m/S 746 mmHg 56%
    10:00 +15°C° 0.1 mm 2 m/S 746 mmHg 49%
    11:00 +15°C° 0 mm 2 m/S 746 mmHg 49%
    12:00 +15°C° 0 mm 2 m/S 746 mmHg 48%
    13:00 +15°C° 0 mm 2 m/S 745 mmHg 48%
    14:00 +15°C° 0 mm 2 m/S 745 mmHg 48%
    15:00 +15°C° 0 mm 2 m/S 745 mmHg 49%
    16:00 +15°C° 0 mm 1 m/S 745 mmHg 49%
    17:00 +14°C° 0 mm 1 m/S 745 mmHg 54%
    18:00 +13°C° 0 mm 1 m/S 744 mmHg 59%
    19:00 +12°C° 0 mm 1 m/S 744 mmHg 65%
    20:00 +11°C° 0 mm 1 m/S 744 mmHg 64%
    21:00 +11°C° 0 mm 1 m/S 744 mmHg 64%
    22:00 +11°C° 0 mm 1 m/S 744 mmHg 64%
    23:00 +9°C° 0 mm 2 m/S 744 mmHg 67%
    Mehr zeigen